STARLINK-3671, 51972

Orbit data source: Space-Track

STARLINK-3671, 51972 is a payload satellite owned by SpaceX/Seattle (US) in LEO that was launched on Wed, 09 Mar 2022 UTC via an FALCON 9 launch vehicle from the Air Force Eastern Test Range (AFETR). Payload-class satellites include a variety of spacecraft equipped with specific instruments for various scientific and technological missions. These include communications satellites like Starlink; space stations such as the ISS; scientific satellites like the Hubble; Earth observation satellites from companies like Planet Labs, Umbra, and HawkEye 360; GPS; miniature CubeSats for education and research; and military/defense satellites.

Loading next visibility...
Identifier
51972, 2022-025S
Orbit
LEO
Country
Flag of USUS
Related business
Manufacturer
SpaceX/Seattle
Mission
Operational Commercial Communications
Bus & Motor
STARLINK, Unknown motor
Mass
297 kg wet, ~275 kg dry
Launch date (UTC)
2022-03-09 (4 years ago)
Launch vehicle
FALCON 9
Launch site
Air Force Eastern Test Range (AFETR)
Object type
Payload
Rocket body
Debris
Shape & HBR
Box + 1 Pan, 10.1 m
Radar Cross Section
13.562 m², Large (>1 m²)

Expand to show TLE details & history
Last TLE update: 17 hours ago

TLE from 17 hours ago
0 STARLINK-3671
1 51972U 22025S   25346.90511438  .00000781  00000-0  71353-4 0  9995
2 51972  53.0542  60.4760 0001382  88.5547 271.5600 15.06392450207846
Epoch: 2025-12-12T21:43Z
TLE epoch observation values (Epoch: 2025-12-12T21:43:21.882Z)
Latitude
-0.00004°
Longitude
12.79476°
Altitude
548.088 km
Speed
7.589 km/s
True Right ascension
04h 01m 54s
True Declination
0° 00' 00"
Sunlit
Object was in full shadow at epoch
Visualization orbit readout
Latitude
Unknown
Longitude
Unknown
Altitude
Unknown
Speed
Unknown
Apparent Right ascension
Unknown
Apparent Declination
Unknown
Sunlit
N/A
Visualization observer readout
Local Sidereal Time
13:07:37
Azimuth
Unknown
Elevation
Unknown
Doppler factor
Unknown
Orbital elements
Apogee altitude
548.463 km
Perigee altitude
546.548 km
Semi-major axis
6,925.642 km
Eccentricity
0.00014
Inclination
53.0542°
RAAN
60.476°
Arg. of periapsis
88.5547°
True anomaly
271.54417°
Mean anomaly
271.56°
Eccentric anomaly
271.55208°
Mean motion
3.76576 °/min
Orbital period
95.6 mins
BSTAR
0.000071353
Loading maneuver chart data...
Computing Atmospheric mass density...
Loading historical data...
Loading historical data...
Loading historical data...
Loading historical data...
Loading historical data...
Loading historical data...
Loading historical data...

Documentation

Showing up to 5 results
|